Location: Cheyres
(46.8153°N, 6.7877°E)
Time: 04:04:29
(UTC+00:00)

Cosmos 1943 Rocket - Pass Details

Date: 11 May 2021
Orbit: 814 x 842 km, 71.0° (Epoch: 18 June)

Event Time Altitude Azimuth Distance (km) Brightness Sun altitude
Exits shadow 22:13:55 54° 158° (SSE) 1,011 2.2 -22.9°
Maximum altitude 22:14:54 63° 112° (ESE) 927 2.1 -22.9°
Drops below altitude 10° 22:20:26 10° 32° (NNE) 2,445 5.1 -23.2°
Sets 22:22:53 0° 30° (NNE) 3,378 6.0 -23.4°
